| time (UTC) | temp F | wind direction | speed MPH | gust MPH | rain 1hr in | rain 24hr in | rain mn in | humidity % | barometer mb |
| 20260831191555 | 80 | 0 | 0.0 | 0.0 | 0.00 | 0.03 | 0.00 | 39 | 1018.3 |
| 20260831191028 | 80 | 0 | 0.0 | 0.0 | 0.00 | 0.03 | 0.00 | 42 | 1018.4 |
| 20260831190525 | 80 | 0 | 0.0 | 0.0 | 0.00 | 0.03 | 0.00 | 37 | 1018.4 |
| 20260831190047 | 79 | 0 | 0.0 | 0.0 | 0.00 | 0.03 | 0.00 | 42 | 1018.3 |
| 20260831185525 | 79 | 0 | 0.0 | 0.0 | 0.00 | 0.03 | 0.00 | 41 | 1018.4 |
| 20260831185031 | 78 | 0 | 0.0 | 0.0 | 0.00 | 0.03 | 0.00 | 41 | 1018.4 |
| 20260831184543 | 78 | 0 | 0.0 | 0.0 | 0.00 | 0.03 | 0.00 | 43 | 1018.6 |
| 20260831184033 | 78 | 0 | 0.0 | 0.0 | 0.00 | 0.03 | 0.00 | 42 | 1018.5 |
| 20260831183529 | 77 | 0 | 0.0 | 0.0 | 0.00 | 0.03 | 0.00 | 40 | 1018.6 |
| 20260831183047 | 78 | 0 | 0.0 | 1.0 | 0.00 | 0.03 | 0.00 | 43 | 1018.6 |
| 20260831182527 | 77 | 0 | 0.0 | 1.0 | 0.00 | 0.03 | 0.00 | 40 | 1018.6 |
| 20260831182030 | 78 | 0 | 0.0 | 0.0 | 0.00 | 0.03 | 0.00 | 39 | 1018.6 |
| 20260831181552 | 78 | 0 | 0.0 | 0.0 | 0.00 | 0.03 | 0.00 | 41 | 1018.7 |
| 20260831181025 | 78 | 0 | 0.0 | 0.0 | 0.00 | 0.03 | 0.00 | 40 | 1018.7 |
| 20260831180528 | 77 | 0 | 0.0 | 0.0 | 0.00 | 0.03 | 0.00 | 47 | 1018.8 |
| 20260831180042 | 77 | 0 | 0.0 | 0.0 | 0.00 | 0.03 | 0.00 | 44 | 1018.9 |
| 20260831175528 | 77 | 0 | 0.0 | 0.0 | 0.00 | 0.03 | 0.00 | 42 | 1019.1 |
| 20260831175029 | 77 | 0 | 0.0 | 0.0 | 0.00 | 0.03 | 0.00 | 47 | 1019.1 |
| 20260831174557 | 76 | 0 | 0.0 | 0.0 | 0.00 | 0.03 | 0.00 | 45 | 1019.1 |
| 20260831174027 | 76 | 0 | 0.0 | 0.0 | 0.00 | 0.03 | 0.00 | 42 | 1019.3 |
| 20260831173527 | 76 | 0 | 0.0 | 0.0 | 0.00 | 0.03 | 0.00 | 44 | 1019.3 |
| 20260831173101 | 75 | 0 | 0.0 | 0.0 | 0.00 | 0.03 | 0.00 | 44 | 1019.4 |
| 20260831172528 | 75 | 0 | 0.0 | 0.0 | 0.00 | 0.03 | 0.00 | 48 | 1019.4 |
| 20260831172029 | 74 | 0 | 0.0 | 0.0 | 0.00 | 0.03 | 0.00 | 49 | 1019.4 |
| 20260831171542 | 74 | 0 | 0.0 | 0.0 | 0.00 | 0.03 | 0.00 | 44 | 1019.5 |
| 20260831171024 | 74 | 0 | 0.0 | 0.0 | 0.00 | 0.03 | 0.00 | 47 | 1019.5 |
| 20260831170525 | 73 | 0 | 0.0 | 0.0 | 0.00 | 0.03 | 0.00 | 48 | 1019.5 |
| 20260831170045 | 72 | 0 | 0.0 | 0.0 | 0.00 | 0.03 | 0.00 | 51 | 1019.6 |
| 20260831165528 | 72 | 0 | 0.0 | 3.0 | 0.00 | 0.03 | 0.00 | 52 | 1019.6 |
| 20260831165026 | 71 | 0 | 0.0 | 3.0 | 0.00 | 0.03 | 0.00 | 51 | 1019.6 |
| 20260831164604 | 71 | 0 | 0.0 | 0.0 | 0.00 | 0.03 | 0.00 | 54 | 1019.7 |
| 20260831164028 | 70 | 0 | 0.0 | 1.0 | 0.00 | 0.03 | 0.00 | 56 | 1019.8 |
| 20260831163527 | 70 | 0 | 0.0 | 1.0 | 0.00 | 0.03 | 0.00 | 54 | 1020.0 |
| 20260831163043 | 69 | 0 | 0.0 | 1.0 | 0.00 | 0.03 | 0.00 | 52 | 1020.0 |
| 20260831162528 | 69 | 0 | 0.0 | 0.0 | 0.00 | 0.03 | 0.00 | 54 | 1020.1 |
| 20260831162029 | 68 | 0 | 0.0 | 0.0 | 0.00 | 0.03 | 0.00 | 51 | 1020.1 |
| 20260831161550 | 68 | 0 | 0.0 | 0.0 | 0.00 | 0.03 | 0.00 | 56 | 1020.2 |
| 20260831161024 | 68 | 0 | 0.0 | 0.0 | 0.00 | 0.03 | 0.00 | 55 | 1020.2 |
| 20260831160527 | 68 | 0 | 0.0 | 0.0 | 0.00 | 0.03 | 0.00 | 55 | 1020.2 |
| 20260831160049 | 68 | 0 | 0.0 | 0.0 | 0.00 | 0.03 | 0.00 | 57 | 1020.3 |
| 20260831155525 | 68 | 0 | 0.0 | 0.0 | 0.00 | 0.03 | 0.00 | 55 | 1020.3 |
| 20260831155033 | 67 | 0 | 0.0 | 0.0 | 0.00 | 0.03 | 0.00 | 60 | 1020.4 |
| 20260831154607 | 67 | 0 | 0.0 | 0.0 | 0.00 | 0.03 | 0.00 | 60 | 1020.5 |
| 20260831154030 | 67 | 0 | 0.0 | 0.0 | 0.00 | 0.03 | 0.00 | 59 | 1020.5 |
| 20260831153524 | 67 | 0 | 0.0 | 0.0 | 0.00 | 0.03 | 0.00 | 56 | 1020.5 |
| 20260831153050 | 66 | 0 | 0.0 | 0.0 | 0.00 | 0.03 | 0.00 | 57 | 1020.4 |
| 20260831152525 | 66 | 0 | 0.0 | 0.0 | 0.00 | 0.03 | 0.00 | 56 | 1020.4 |
| 20260831152029 | 65 | 0 | 0.0 | 0.0 | 0.00 | 0.03 | 0.00 | 58 | 1020.5 |
| 20260831151549 | 65 | 0 | 0.0 | 0.0 | 0.00 | 0.03 | 0.00 | 63 | 1020.5 |
| 20260831151026 | 65 | 0 | 0.0 | 0.0 | 0.00 | 0.03 | 0.00 | 66 | 1020.5 |
| 20260831150526 | 65 | 0 | 0.0 | 0.0 | 0.00 | 0.03 | 0.00 | 62 | 1020.5 |
| 20260831150044 | 64 | 0 | 0.0 | 1.0 | 0.00 | 0.03 | 0.00 | 60 | 1020.6 |
| 20260831145526 | 64 | 0 | 0.0 | 1.0 | 0.00 | 0.03 | 0.00 | 63 | 1020.6 |
| 20260831145033 | 64 | 0 | 0.0 | 1.0 | 0.00 | 0.03 | 0.00 | 66 | 1020.7 |
| 20260831144553 | 63 | 0 | 0.0 | 0.0 | 0.00 | 0.03 | 0.00 | 67 | 1020.8 |
| 20260831144030 | 63 | 0 | 0.0 | 0.0 | 0.00 | 0.03 | 0.00 | 71 | 1020.8 |
| 20260831143527 | 63 | 0 | 0.0 | 0.0 | 0.00 | 0.03 | 0.00 | 73 | 1020.8 |
| 20260831143056 | 63 | 0 | 0.0 | 0.0 | 0.00 | 0.03 | 0.00 | 69 | 1020.8 |
| 20260831142525 | 62 | 0 | 0.0 | 0.0 | 0.00 | 0.03 | 0.00 | 76 | 1020.8 |
| 20260831142026 | 62 | 0 | 0.0 | 0.0 | 0.00 | 0.03 | 0.00 | 79 | 1020.8 |
| 20260831141557 | 61 | 0 | 0.0 | 0.0 | 0.00 | 0.03 | 0.00 | 77 | 1020.8 |
| 20260831141025 | 61 | 0 | 0.0 | 0.0 | 0.00 | 0.03 | 0.00 | 80 | 1020.9 |
| 20260831140528 | 60 | 0 | 0.0 | 0.0 | 0.00 | 0.03 | 0.00 | 81 | 1020.9 |
| 20260831140043 | 60 | 0 | 0.0 | 0.0 | 0.00 | 0.03 | 0.00 | 86 | 1021.0 |
| 20260831135524 | 59 | 0 | 0.0 | 0.0 | 0.00 | 0.03 | 0.00 | 85 | 1020.9 |
| 20260831135028 | 59 | 0 | 0.0 | 0.0 | 0.00 | 0.03 | 0.00 | 88 | 1020.9 |
| 20260831134552 | 58 | 0 | 0.0 | 0.0 | 0.00 | 0.03 | 0.00 | 90 | 1020.8 |
| 20260831134024 | 58 | 0 | 0.0 | 0.0 | 0.00 | 0.03 | 0.00 | 91 | 1020.8 |
| 20260831133524 | 58 | 0 | 0.0 | 0.0 | 0.00 | 0.03 | 0.00 | 94 | 1020.7 |
| 20260831133052 | 58 | 0 | 0.0 | 0.0 | 0.00 | 0.03 | 0.00 | 94 | 1020.7 |
| 20260831132527 | 57 | 0 | 0.0 | 0.0 | 0.00 | 0.03 | 0.00 | 95 | 1020.7 |
| 20260831132027 | 57 | 0 | 0.0 | 0.0 | 0.00 | 0.03 | 0.00 | 95 | 1020.7 |
| 20260831131547 | 57 | 0 | 0.0 | 0.0 | 0.00 | 0.03 | 0.00 | 95 | 1020.6 |
| 20260831131026 | 57 | 0 | 0.0 | 0.0 | 0.00 | 0.03 | 0.00 | 96 | 1020.6 |
| 20260831130526 | 57 | 0 | 0.0 | 0.0 | 0.00 | 0.03 | 0.00 | 96 | 1020.7 |
| 20260831130046 | 56 | 0 | 0.0 | 0.0 | 0.00 | 0.03 | 0.00 | 96 | 1020.6 |
| 20260831125526 | 56 | 0 | 0.0 | 0.0 | 0.00 | 0.03 | 0.00 | 96 | 1020.5 |
| 20260831125026 | 56 | 0 | 0.0 | 0.0 | 0.00 | 0.03 | 0.00 | 96 | 1020.5 |
| 20260831124556 | 56 | 0 | 0.0 | 0.0 | 0.00 | 0.03 | 0.00 | 96 | 1020.4 |
| 20260831124024 | 55 | 0 | 0.0 | 0.0 | 0.00 | 0.03 | 0.00 | 96 | 1020.4 |
| 20260831123528 | 55 | 0 | 0.0 | 0.0 | 0.00 | 0.03 | 0.00 | 96 | 1020.4 |
| 20260831123051 | 55 | 0 | 0.0 | 0.0 | 0.00 | 0.03 | 0.00 | 96 | 1020.4 |
| 20260831122529 | 54 | 0 | 0.0 | 0.0 | 0.00 | 0.03 | 0.00 | 96 | 1020.4 |
| 20260831122027 | 54 | 0 | 0.0 | 0.0 | 0.00 | 0.03 | 0.00 | 96 | 1020.5 |
| 20260831121545 | 53 | 0 | 0.0 | 0.0 | 0.00 | 0.03 | 0.00 | 96 | 1020.4 |
| 20260831121026 | 53 | 0 | 0.0 | 0.0 | 0.00 | 0.03 | 0.00 | 96 | 1020.3 |
| 20260831120528 | 53 | 0 | 0.0 | 0.0 | 0.00 | 0.03 | 0.00 | 96 | 1020.4 |
| 20260831120048 | 53 | 0 | 0.0 | 0.0 | 0.00 | 0.03 | 0.00 | 96 | 1020.4 |
| 20260831115526 | 53 | 0 | 0.0 | 0.0 | 0.00 | 0.03 | 0.00 | 96 | 1020.5 |
| 20260831115024 | 52 | 0 | 0.0 | 0.0 | 0.00 | 0.03 | 0.00 | 96 | 1020.4 |
| 20260831114551 | 52 | 0 | 0.0 | 0.0 | 0.00 | 0.03 | 0.00 | 96 | 1020.4 |
| 20260831114027 | 52 | 0 | 0.0 | 0.0 | 0.00 | 0.03 | 0.00 | 96 | 1020.4 |
| 20260831113524 | 51 | 0 | 0.0 | 0.0 | 0.00 | 0.03 | 0.00 | 96 | 1020.4 |
| 20260831113049 | 51 | 0 | 0.0 | 0.0 | 0.00 | 0.03 | 0.00 | 96 | 1020.5 |
| 20260831112525 | 51 | 0 | 0.0 | 0.0 | 0.00 | 0.03 | 0.00 | 96 | 1020.6 |
| 20260831112024 | 51 | 0 | 0.0 | 0.0 | 0.00 | 0.03 | 0.00 | 95 | 1020.5 |
| 20260831111545 | 51 | 0 | 0.0 | 0.0 | 0.00 | 0.03 | 0.00 | 96 | 1020.4 |
| 20260831111028 | 51 | 0 | 0.0 | 0.0 | 0.00 | 0.03 | 0.00 | 95 | 1020.2 |
| 20260831110525 | 50 | 0 | 0.0 | 0.0 | 0.00 | 0.03 | 0.00 | 95 | 1020.2 |
| 20260831110052 | 50 | 0 | 0.0 | 0.0 | 0.00 | 0.03 | 0.00 | 95 | 1020.2 |
| 20260831105526 | 50 | 0 | 0.0 | 0.0 | 0.00 | 0.03 | 0.00 | 95 | 1020.2 |
| 20260831105025 | 50 | 0 | 0.0 | 0.0 | 0.00 | 0.03 | 0.00 | 95 | 1020.2 |
| 20260831104549 | 50 | 0 | 0.0 | 0.0 | 0.00 | 0.03 | 0.00 | 95 | 1020.2 |
| 20260831104027 | 50 | 0 | 0.0 | 0.0 | 0.00 | 0.03 | 0.00 | 95 | 1020.1 |
| 20260831103523 | 50 | 0 | 0.0 | 0.0 | 0.00 | 0.03 | 0.00 | 95 | 1020.0 |
| 20260831103044 | 50 | 0 | 0.0 | 0.0 | 0.00 | 0.03 | 0.00 | 95 | 1019.9 |
| 20260831102529 | 50 | 0 | 0.0 | 0.0 | 0.00 | 0.03 | 0.00 | 95 | 1019.9 |
| 20260831102025 | 50 | 0 | 0.0 | 0.0 | 0.00 | 0.03 | 0.00 | 95 | 1019.8 |
| 20260831101557 | 50 | 0 | 0.0 | 0.0 | 0.00 | 0.03 | 0.00 | 95 | 1019.9 |
| 20260831101024 | 51 | 0 | 0.0 | 0.0 | 0.00 | 0.03 | 0.00 | 95 | 1019.9 |
| 20260831100525 | 51 | 0 | 0.0 | 0.0 | 0.00 | 0.03 | 0.00 | 95 | 1019.8 |
| 20260831100047 | 51 | 0 | 0.0 | 0.0 | 0.00 | 0.03 | 0.00 | 95 | 1019.8 |
| 20260831095526 | 51 | 0 | 0.0 | 0.0 | 0.00 | 0.03 | 0.00 | 95 | 1019.7 |
| 20260831095026 | 51 | 0 | 0.0 | 0.0 | 0.00 | 0.03 | 0.00 | 95 | 1019.6 |
| 20260831094605 | 51 | 0 | 0.0 | 0.0 | 0.00 | 0.03 | 0.00 | 95 | 1019.5 |
| 20260831094025 | 51 | 0 | 0.0 | 0.0 | 0.00 | 0.03 | 0.00 | 95 | 1019.5 |
| 20260831093533 | 51 | 0 | 0.0 | 0.0 | 0.00 | 0.03 | 0.00 | 95 | 1019.4 |
| 20260831093050 | 51 | 0 | 0.0 | 0.0 | 0.00 | 0.03 | 0.00 | 95 | 1019.3 |
| 20260831092523 | 52 | 0 | 0.0 | 0.0 | 0.00 | 0.03 | 0.00 | 95 | 1019.3 |
| 20260831092027 | 52 | 0 | 0.0 | 0.0 | 0.00 | 0.03 | 0.00 | 95 | 1019.3 |
| 20260831091542 | 52 | 0 | 0.0 | 0.0 | 0.00 | 0.03 | 0.00 | 95 | 1019.1 |
| 20260831091028 | 52 | 0 | 0.0 | 0.0 | 0.00 | 0.03 | 0.00 | 95 | 1019.0 |
| 20260831090525 | 52 | 0 | 0.0 | 0.0 | 0.00 | 0.03 | 0.00 | 95 | 1019.0 |
| 20260831090059 | 52 | 0 | 0.0 | 0.0 | 0.00 | 0.03 | 0.00 | 95 | 1019.0 |
| 20260831085526 | 52 | 0 | 0.0 | 0.0 | 0.00 | 0.03 | 0.00 | 95 | 1018.9 |
| 20260831085026 | 53 | 0 | 0.0 | 0.0 | 0.00 | 0.03 | 0.00 | 95 | 1018.7 |
| 20260831084543 | 53 | 0 | 0.0 | 0.0 | 0.00 | 0.03 | 0.00 | 95 | 1018.6 |
| 20260831084026 | 53 | 0 | 0.0 | 0.0 | 0.00 | 0.03 | 0.00 | 95 | 1018.7 |
| 20260831083526 | 53 | 0 | 0.0 | 0.0 | 0.00 | 0.03 | 0.00 | 95 | 1018.6 |
| 20260831083050 | 53 | 0 | 0.0 | 0.0 | 0.00 | 0.03 | 0.00 | 95 | 1018.6 |
| 20260831082526 | 53 | 0 | 0.0 | 0.0 | 0.00 | 0.03 | 0.00 | 95 | 1018.6 |
| 20260831082025 | 53 | 0 | 0.0 | 0.0 | 0.00 | 0.03 | 0.00 | 95 | 1018.5 |
| 20260831081559 | 53 | 0 | 0.0 | 0.0 | 0.00 | 0.03 | 0.00 | 95 | 1018.5 |
| 20260831081026 | 53 | 0 | 0.0 | 0.0 | 0.00 | 0.03 | 0.00 | 95 | 1018.4 |
| 20260831080526 | 54 | 0 | 0.0 | 0.0 | 0.00 | 0.03 | 0.00 | 95 | 1018.4 |
| 20260831080052 | 54 | 0 | 0.0 | 0.0 | 0.00 | 0.03 | 0.00 | 95 | 1018.3 |
| 20260831075525 | 54 | 0 | 0.0 | 0.0 | 0.00 | 0.03 | 0.00 | 95 | 1018.3 |
| 20260831075026 | 54 | 0 | 0.0 | 0.0 | 0.00 | 0.03 | 0.00 | 95 | 1018.4 |
| 20260831074546 | 54 | 0 | 0.0 | 0.0 | 0.00 | 0.03 | 0.00 | 95 | 1018.5 |
| 20260831074027 | 54 | 0 | 0.0 | 0.0 | 0.00 | 0.03 | 0.00 | 95 | 1018.4 |
| 20260831073524 | 54 | 0 | 0.0 | 0.0 | 0.00 | 0.03 | 0.00 | 95 | 1018.4 |
| 20260831073055 | 54 | 0 | 0.0 | 0.0 | 0.00 | 0.03 | 0.00 | 95 | 1018.3 |
| 20260831072528 | 55 | 0 | 0.0 | 0.0 | 0.00 | 0.03 | 0.00 | 95 | 1018.3 |
| 20260831072024 | 55 | 0 | 0.0 | 0.0 | 0.00 | 0.03 | 0.00 | 95 | 1018.4 |
| 20260831071542 | 55 | 0 | 0.0 | 0.0 | 0.00 | 0.03 | 0.00 | 95 | 1018.4 |
| 20260831071024 | 55 | 0 | 0.0 | 0.0 | 0.00 | 0.03 | 0.00 | 95 | 1018.3 |
| 20260831070525 | 55 | 0 | 0.0 | 0.0 | 0.00 | 0.03 | 0.00 | 95 | 1018.3 |
| 20260831070053 | 55 | 0 | 0.0 | 0.0 | 0.00 | 0.03 | 0.00 | 95 | 1018.4 |
| 20260831065528 | 55 | 0 | 0.0 | 0.0 | 0.00 | 0.03 | 0.00 | 95 | 1018.4 |
| 20260831065027 | 55 | 0 | 0.0 | 0.0 | 0.00 | 0.03 | 0.00 | 95 | 1018.4 |
| 20260831064543 | 55 | 0 | 0.0 | 0.0 | 0.00 | 0.03 | 0.00 | 95 | 1018.3 |
| 20260831064024 | 55 | 0 | 0.0 | 0.0 | 0.00 | 0.03 | 0.00 | 95 | 1018.4 |
| 20260831063526 | 56 | 0 | 0.0 | 0.0 | 0.00 | 0.03 | 0.00 | 95 | 1018.4 |
| 20260831063042 | 56 | 0 | 0.0 | 0.0 | 0.00 | 0.03 | 0.00 | 95 | 1018.3 |
| 20260831062525 | 56 | 0 | 0.0 | 0.0 | 0.00 | 0.03 | 0.00 | 95 | 1018.2 |
| 20260831062025 | 56 | 0 | 0.0 | 0.0 | 0.00 | 0.03 | 0.00 | 95 | 1018.1 |
| 20260831061549 | 56 | 0 | 0.0 | 0.0 | 0.00 | 0.03 | 0.00 | 95 | 1018.0 |
| 20260831061025 | 56 | 0 | 0.0 | 0.0 | 0.00 | 0.03 | 0.00 | 95 | 1017.9 |
| 20260831060530 | 56 | 0 | 0.0 | 0.0 | 0.00 | 0.03 | 0.00 | 94 | 1017.9 |
| 20260831060051 | 56 | 0 | 0.0 | 0.0 | 0.00 | 0.03 | 0.00 | 94 | 1017.8 |
| 20260831055525 | 56 | 0 | 0.0 | 0.0 | 0.00 | 0.03 | 0.00 | 95 | 1017.7 |
| 20260831055029 | 56 | 0 | 0.0 | 0.0 | 0.00 | 0.03 | 0.00 | 95 | 1017.8 |
| 20260831054544 | 56 | 0 | 0.0 | 0.0 | 0.00 | 0.03 | 0.00 | 95 | 1017.8 |
| 20260831054023 | 56 | 0 | 0.0 | 0.0 | 0.00 | 0.03 | 0.00 | 95 | 1017.7 |
| 20260831053528 | 57 | 0 | 0.0 | 0.0 | 0.00 | 0.03 | 0.00 | 95 | 1017.7 |
| 20260831053048 | 57 | 0 | 0.0 | 0.0 | 0.00 | 0.03 | 0.00 | 94 | 1017.5 |
| 20260831052526 | 57 | 0 | 0.0 | 0.0 | 0.00 | 0.03 | 0.00 | 94 | 1017.6 |
| 20260831052027 | 57 | 0 | 0.0 | 0.0 | 0.00 | 0.03 | 0.00 | 95 | 1017.7 |
| 20260831051544 | 57 | 0 | 0.0 | 0.0 | 0.00 | 0.03 | 0.00 | 94 | 1017.7 |
| 20260831051025 | 57 | 0 | 0.0 | 0.0 | 0.00 | 0.03 | 0.00 | 94 | 1017.7 |
| 20260831050525 | 57 | 0 | 0.0 | 0.0 | 0.00 | 0.03 | 0.00 | 94 | 1017.5 |
| 20260831050101 | 57 | 0 | 0.0 | 0.0 | 0.00 | 0.03 | 0.00 | 94 | 1017.5 |
| 20260831045524 | 57 | 0 | 0.0 | 0.0 | 0.00 | 0.03 | 0.00 | 94 | 1017.5 |
| 20260831045025 | 57 | 0 | 0.0 | 0.0 | 0.00 | 0.03 | 0.00 | 94 | 1017.3 |
| 20260831044614 | 57 | 0 | 0.0 | 0.0 | 0.00 | 0.03 | 0.00 | 94 | 1017.4 |
| 20260831044025 | 57 | 0 | 0.0 | 0.0 | 0.00 | 0.03 | 0.00 | 94 | 1017.2 |
| 20260831043525 | 58 | 0 | 0.0 | 0.0 | 0.00 | 0.03 | 0.00 | 94 | 1017.2 |
| 20260831043047 | 58 | 0 | 0.0 | 0.0 | 0.00 | 0.03 | 0.00 | 94 | 1017.3 |
| 20260831042525 | 58 | 0 | 0.0 | 0.0 | 0.00 | 0.03 | 0.00 | 93 | 1017.2 |
| 20260831042025 | 58 | 0 | 0.0 | 0.0 | 0.00 | 0.03 | 0.00 | 94 | 1017.2 |
| 20260831041541 | 58 | 0 | 0.0 | 0.0 | 0.00 | 0.03 | 0.00 | 94 | 1017.2 |
| 20260831041026 | 58 | 0 | 0.0 | 0.0 | 0.00 | 0.03 | 0.00 | 93 | 1017.2 |
| 20260831040526 | 59 | 0 | 0.0 | 0.0 | 0.00 | 0.03 | 0.00 | 94 | 1017.2 |
| 20260831040043 | 59 | 0 | 0.0 | 0.0 | 0.00 | 0.03 | 0.00 | 94 | 1017.2 |
| 20260831035525 | 59 | 0 | 0.0 | 0.0 | 0.00 | 0.03 | 0.03 | 93 | 1017.0 |
| 20260831035026 | 59 | 0 | 0.0 | 0.0 | 0.00 | 0.03 | 0.03 | 93 | 1017.0 |
| 20260831034545 | 59 | 0 | 0.0 | 0.0 | 0.00 | 0.03 | 0.03 | 94 | 1017.1 |
| 20260831034026 | 59 | 0 | 0.0 | 0.0 | 0.00 | 0.03 | 0.03 | 94 | 1017.1 |
| 20260831033525 | 60 | 0 | 0.0 | 0.0 | 0.00 | 0.03 | 0.03 | 93 | 1017.2 |
| 20260831033041 | 60 | 0 | 0.0 | 0.0 | 0.00 | 0.03 | 0.03 | 94 | 1017.2 |
| 20260831032527 | 60 | 0 | 0.0 | 0.0 | 0.00 | 0.03 | 0.03 | 94 | 1017.2 |
| 20260831032024 | 60 | 0 | 0.0 | 0.0 | 0.00 | 0.03 | 0.03 | 94 | 1017.1 |
| 20260831031547 | 60 | 0 | 0.0 | 0.0 | 0.00 | 0.03 | 0.03 | 94 | 1017.2 |
| 20260831031024 | 60 | 0 | 0.0 | 0.0 | 0.00 | 0.03 | 0.03 | 93 | 1017.2 |
| 20260831030526 | 60 | 0 | 0.0 | 0.0 | 0.01 | 0.03 | 0.03 | 93 | 1017.2 |
| 20260831030043 | 60 | 0 | 0.0 | 0.0 | 0.01 | 0.03 | 0.03 | 93 | 1017.1 |
| 20260831025525 | 60 | 0 | 0.0 | 0.0 | 0.01 | 0.03 | 0.03 | 93 | 1017.1 |
| 20260831025027 | 60 | 0 | 0.0 | 0.0 | 0.01 | 0.03 | 0.03 | 93 | 1017.1 |
| 20260831024610 | 60 | 0 | 0.0 | 0.0 | 0.01 | 0.03 | 0.03 | 93 | 1016.9 |
| 20260831024024 | 60 | 0 | 0.0 | 0.0 | 0.02 | 0.03 | 0.03 | 93 | 1017.0 |
| 20260831023524 | 61 | 0 | 0.0 | 0.0 | 0.02 | 0.03 | 0.03 | 93 | 1016.9 |
| 20260831023045 | 61 | 0 | 0.0 | 0.0 | 0.03 | 0.03 | 0.03 | 93 | 1017.1 |
| 20260831022524 | 61 | 0 | 0.0 | 0.0 | 0.03 | 0.03 | 0.03 | 92 | 1017.0 |
| 20260831022024 | 61 | 0 | 0.0 | 0.0 | 0.03 | 0.03 | 0.03 | 92 | 1017.0 |
| 20260831021544 | 61 | 0 | 0.0 | 0.0 | 0.03 | 0.03 | 0.03 | 91 | 1017.1 |
| 20260831021024 | 61 | 0 | 0.0 | 0.0 | 0.03 | 0.03 | 0.03 | 91 | 1017.2 |
| 20260831020525 | 62 | 0 | 0.0 | 0.0 | 0.02 | 0.02 | 0.02 | 91 | 1017.2 |
| 20260831015524 | 63 | 0 | 0.0 | 5.0 | 0.02 | 0.02 | 0.02 | 89 | 1017.6 |
| 20260831015023 | 63 | 0 | 0.0 | 5.0 | 0.02 | 0.02 | 0.02 | 89 | 1017.7 |
| 20260831014601 | 64 | 249 | 0.0 | 5.0 | 0.02 | 0.02 | 0.02 | 89 | 1017.7 |
| 20260831014030 | 64 | 0 | 0.0 | 4.0 | 0.01 | 0.01 | 0.01 | 89 | 1017.7 |
| 20260831013528 | 64 | 0 | 0.0 | 6.0 | 0.01 | 0.01 | 0.01 | 90 | 1017.6 |
| 20260831013046 | 64 | 0 | 0.0 | 6.0 | 0.00 | 0.00 | 0.00 | 90 | 1017.1 |
| 20260831012528 | 64 | 207 | 0.0 | 6.0 | 0.00 | 0.00 | 0.00 | 92 | 1017.2 |
| 20260831012028 | 64 | 0 | 0.0 | 0.0 | 0.00 | 0.00 | 0.00 | 92 | 1016.4 |
| 20260831011557 | 64 | 0 | 0.0 | 0.0 | 0.00 | 0.00 | 0.00 | 92 | 1015.6 |
| 20260831011026 | 64 | 0 | 0.0 | 0.0 | 0.00 | 0.00 | 0.00 | 91 | 1015.4 |
| 20260831010524 | 65 | 0 | 0.0 | 0.0 | 0.00 | 0.00 | 0.00 | 91 | 1015.4 |
| 20260831010050 | 65 | 0 | 0.0 | 0.0 | 0.00 | 0.00 | 0.00 | 91 | 1015.5 |
| 20260831005526 | 65 | 0 | 0.0 | 0.0 | 0.00 | 0.00 | 0.00 | 91 | 1015.6 |
| 20260831005026 | 65 | 0 | 0.0 | 0.0 | 0.00 | 0.00 | 0.00 | 91 | 1015.5 |
| 20260831004544 | 65 | 0 | 0.0 | 0.0 | 0.00 | 0.00 | 0.00 | 91 | 1015.4 |
| 20260831004027 | 65 | 0 | 0.0 | 0.0 | 0.00 | 0.00 | 0.00 | 90 | 1015.5 |
| 20260831003528 | 65 | 0 | 0.0 | 0.0 | 0.00 | 0.00 | 0.00 | 90 | 1015.4 |
| 20260831003052 | 65 | 0 | 0.0 | 0.0 | 0.00 | 0.00 | 0.00 | 90 | 1015.3 |
| 20260831002528 | 65 | 0 | 0.0 | 0.0 | 0.00 | 0.00 | 0.00 | 89 | 1015.4 |
| 20260831002027 | 66 | 0 | 0.0 | 0.0 | 0.00 | 0.00 | 0.00 | 89 | 1015.3 |
| 20260831001554 | 66 | 0 | 0.0 | 0.0 | 0.00 | 0.00 | 0.00 | 89 | 1015.2 |
| 20260831001027 | 66 | 0 | 0.0 | 0.0 | 0.00 | 0.00 | 0.00 | 89 | 1015.1 |
| 20260831000527 | 66 | 0 | 0.0 | 0.0 | 0.00 | 0.00 | 0.00 | 88 | 1015.1 |
| 20260831000045 | 67 | 0 | 0.0 | 0.0 | 0.00 | 0.00 | 0.00 | 88 | 1015.2 |
| 20260830235530 | 67 | 0 | 0.0 | 0.0 | 0.00 | 0.00 | 0.00 | 87 | 1015.1 |
| 20260830235032 | 67 | 0 | 0.0 | 0.0 | 0.00 | 0.00 | 0.00 | 87 | 1015.1 |
| 20260830234610 | 67 | 0 | 0.0 | 0.0 | 0.00 | 0.00 | 0.00 | 86 | 1015.0 |
| 20260830234025 | 67 | 0 | 0.0 | 0.0 | 0.00 | 0.00 | 0.00 | 85 | 1015.0 |
| 20260830233527 | 67 | 0 | 0.0 | 0.0 | 0.00 | 0.00 | 0.00 | 85 | 1014.9 |
| 20260830233052 | 67 | 0 | 0.0 | 0.0 | 0.00 | 0.00 | 0.00 | 85 | 1014.9 |
| 20260830232529 | 67 | 0 | 0.0 | 0.0 | 0.00 | 0.00 | 0.00 | 84 | 1014.9 |
| 20260830232027 | 67 | 0 | 0.0 | 0.0 | 0.00 | 0.00 | 0.00 | 84 | 1014.8 |
| 20260830231548 | 67 | 0 | 0.0 | 0.0 | 0.00 | 0.00 | 0.00 | 83 | 1014.7 |
| 20260830231025 | 67 | 0 | 0.0 | 0.0 | 0.00 | 0.00 | 0.00 | 85 | 1014.7 |
| 20260830230526 | 68 | 0 | 0.0 | 0.0 | 0.00 | 0.00 | 0.00 | 85 | 1014.7 |
| 20260830230045 | 68 | 0 | 0.0 | 0.0 | 0.00 | 0.00 | 0.00 | 85 | 1014.7 |
| 20260830225528 | 68 | 0 | 0.0 | 0.0 | 0.00 | 0.00 | 0.00 | 83 | 1014.7 |
| 20260830225029 | 68 | 0 | 0.0 | 0.0 | 0.00 | 0.00 | 0.00 | 84 | 1014.6 |
| 20260830224602 | 68 | 0 | 0.0 | 0.0 | 0.00 | 0.00 | 0.00 | 83 | 1014.9 |
| 20260830224024 | 68 | 0 | 0.0 | 0.0 | 0.00 | 0.00 | 0.00 | 83 | 1014.8 |
| 20260830223524 | 68 | 0 | 0.0 | 0.0 | 0.00 | 0.00 | 0.00 | 82 | 1014.8 |
| 20260830223043 | 68 | 0 | 0.0 | 0.0 | 0.00 | 0.00 | 0.00 | 83 | 1014.8 |
| 20260830222524 | 69 | 0 | 0.0 | 0.0 | 0.00 | 0.00 | 0.00 | 83 | 1014.7 |
| 20260830222027 | 69 | 0 | 0.0 | 0.0 | 0.00 | 0.00 | 0.00 | 82 | 1014.7 |
| 20260830221547 | 69 | 0 | 0.0 | 0.0 | 0.00 | 0.00 | 0.00 | 81 | 1014.5 |
| 20260830221025 | 69 | 0 | 0.0 | 0.0 | 0.00 | 0.00 | 0.00 | 82 | 1014.7 |
| 20260830220525 | 69 | 0 | 0.0 | 0.0 | 0.00 | 0.00 | 0.00 | 83 | 1014.7 |
| 20260830220046 | 69 | 0 | 0.0 | 0.0 | 0.00 | 0.00 | 0.00 | 82 | 1014.6 |
| 20260830215525 | 69 | 0 | 0.0 | 0.0 | 0.00 | 0.00 | 0.00 | 83 | 1014.6 |
| 20260830215025 | 69 | 0 | 0.0 | 0.0 | 0.00 | 0.00 | 0.00 | 83 | 1014.7 |
| 20260830214554 | 69 | 0 | 0.0 | 0.0 | 0.00 | 0.00 | 0.00 | 82 | 1014.8 |
| 20260830214024 | 70 | 0 | 0.0 | 0.0 | 0.00 | 0.00 | 0.00 | 83 | 1014.7 |
| 20260830213523 | 70 | 0 | 0.0 | 0.0 | 0.00 | 0.00 | 0.00 | 83 | 1014.7 |
| 20260830213044 | 70 | 0 | 0.0 | 0.0 | 0.00 | 0.00 | 0.00 | 80 | 1015.0 |
| 20260830212524 | 70 | 0 | 0.0 | 0.0 | 0.00 | 0.00 | 0.00 | 81 | 1014.9 |
| 20260830212028 | 70 | 0 | 0.0 | 0.0 | 0.00 | 0.00 | 0.00 | 81 | 1014.9 |
| 20260830211542 | 70 | 0 | 0.0 | 0.0 | 0.00 | 0.00 | 0.00 | 81 | 1014.8 |
| 20260830211027 | 71 | 0 | 0.0 | 0.0 | 0.00 | 0.00 | 0.00 | 81 | 1014.9 |
| 20260830210525 | 71 | 0 | 0.0 | 0.0 | 0.00 | 0.00 | 0.00 | 81 | 1014.9 |
| 20260830210046 | 71 | 0 | 0.0 | 0.0 | 0.00 | 0.00 | 0.00 | 79 | 1014.8 |
| 20260830205527 | 71 | 0 | 0.0 | 0.0 | 0.00 | 0.00 | 0.00 | 80 | 1014.8 |
| 20260830205029 | 71 | 0 | 0.0 | 0.0 | 0.00 | 0.00 | 0.00 | 81 | 1014.7 |
| 20260830204550 | 71 | 0 | 0.0 | 0.0 | 0.00 | 0.00 | 0.00 | 79 | 1014.7 |
| 20260830204024 | 71 | 0 | 0.0 | 0.0 | 0.00 | 0.00 | 0.00 | 78 | 1014.7 |
| 20260830203524 | 71 | 0 | 0.0 | 0.0 | 0.00 | 0.00 | 0.00 | 77 | 1014.7 |
| 20260830203046 | 71 | 0 | 0.0 | 0.0 | 0.00 | 0.00 | 0.00 | 81 | 1014.8 |
| 20260830202528 | 71 | 0 | 0.0 | 0.0 | 0.00 | 0.00 | 0.00 | 80 | 1014.7 |
| 20260830202026 | 71 | 0 | 0.0 | 0.0 | 0.00 | 0.00 | 0.00 | 82 | 1014.7 |
| 20260830201610 | 71 | 0 | 0.0 | 0.0 | 0.00 | 0.00 | 0.00 | 82 | 1014.9 |
| 20260830201024 | 71 | 0 | 0.0 | 0.0 | 0.00 | 0.00 | 0.00 | 83 | 1014.7 |
| 20260830200524 | 71 | 0 | 0.0 | 0.0 | 0.00 | 0.00 | 0.00 | 82 | 1014.9 |
| 20260830200044 | 71 | 0 | 0.0 | 0.0 | 0.00 | 0.00 | 0.00 | 84 | 1015.0 |
| 20260830195524 | 71 | 0 | 0.0 | 0.0 | 0.00 | 0.00 | 0.00 | 82 | 1015.1 |
| 20260830195025 | 71 | 0 | 0.0 | 0.0 | 0.00 | 0.00 | 0.00 | 80 | 1015.1 |
| 20260830194548 | 71 | 0 | 0.0 | 0.0 | 0.00 | 0.00 | 0.00 | 81 | 1015.2 |
| 20260830194024 | 71 | 0 | 0.0 | 0.0 | 0.00 | 0.00 | 0.00 | 82 | 1015.4 |
| 20260830193525 | 71 | 0 | 0.0 | 0.0 | 0.00 | 0.00 | 0.00 | 83 | 1015.4 |
| 20260830193047 | 71 | 0 | 0.0 | 0.0 | 0.00 | 0.00 | 0.00 | 82 | 1015.4 |
| 20260830192524 | 71 | 0 | 0.0 | 0.0 | 0.00 | 0.00 | 0.00 | 83 | 1015.3 |
| 20260830192026 | 71 | 0 | 0.0 | 0.0 | 0.00 | 0.00 | 0.00 | 81 | 1015.3 |